Volver al catálogo

SL-12 R/B(2)

ActivoMEO
NORAD 24897·ROCKET BODY·🇷🇺 Russia

Lanzado Aug 14, 1997 desde Baikonur Cosmodrome

Loading…

Próximos Pases (próximas 24 horas)

TLE

ActualizadoSource: Space-Track

Época: Sep 14, 2026, 12:25 UTC

1 24897U 97041D   26257.51804348 -.00000007  00000-0  00000-0 0  9994
2 24897  14.5207 357.4473 0357637 303.9817  74.4981  1.00009462106255

Sigue SL-12 R/B(2) en tiempo real con AllMySat

Download on the App Store